Temperature
22 24 25 25 26 26 24 22 22 22 21 21 21 21 21 22 21 21 21 20 20 20 20 20 20 20 20 19 19 19 19 18 18 18 18 17 17 17 17 17 17 17 17 17
23 24 25 25 25 26 25 24 23 23 22 21 22 22 21 21 21 20 20 20 20 20 20 19 20 19 19 19 19 19 18 18 18 18 17 17 17 17 17 16 16 16 16 16
20 22 23 23 24 24 24 23 23 22 21 21 20 20 20 20 20 20 20 20 20 20 19 19 19 19 19 18 18 18 18 18 18 17 17 17 17 16 16 16 16 16 16 16
19 21 22 22 23 24 23 22 22 21 21 21 20 21 21 21 21 20 20 20 20 20 20 19 19 19 18 18 18 18 17 17 17 17 17 16 16 16 16 16 16 16 16 15
17 19 21 22 23 23 22 20 21 21 20 20 20 20 20 21 21 21 21 20 20 20 19 19 19 18 18 18 17 17 17 17 17 16 16 16 16 16 16 16 16 15 15 15
17 20 20 21 22 23 21 19 20 20 19 19 20 18 18 20 20 20 20 20 20 19 19 19 18 18 18 17 17 17 17 16 16 16 16 16 16 16 16 15 15 15 15 15
17 18 19 20 21 22 20 19 20 20 20 19 19 19 20 20 20 20 19 19 19 19 19 18 18 18 17 17 17 17 16 16 16 16 16 16 16 15 15 15 15 15 15 15
16 18 18 19 20 19 18 19 20 20 20 20 20 20 19 19 19 19 19 19 19 18 18 18 17 17 17 17 17 16 16 16 16 16 15 15 15 15 15 15 15 14 14 14
16 16 17 19 19 20 20 19 19 19 19 19 19 19 18 18 18 18 18 18 18 18 17 17 17 17 16 16 16 16 16 15 15 15 15 15 15 15 15 14 14 14 14 14
15 16 17 18 19 19 19 19 19 19 19 19 19 18 18 18 18 18 17 17 17 17 17 16 16 16 16 16 15 15 15 15 15 15 15 15 14 14 14 14 14 14 13 13
15 16 17 18 18 18 19 19 19 19 19 19 18 18 18 18 17 17 17 16 16 16 16 16 15 15 15 15 15 15 15 15 15 14 14 14 14 14 14 14 14 14 14 13
14 16 15 17 18 18 18 18 18 18 18 18 18 17 17 17 17 17 16 16 16 16 15 15 15 15 15 15 15 15 14 14 14 14 14 14 14 14 14 14 13 13 13 13
17 17 18 18 17 18 18 18 18 17 17 17 17 17 17 16 16 16 16 16 15 15 15 15 15 15 15 14 14 14 14 14 14 14 14 14 14 13 13 13 13 13 13 13
17 17 17 17 17 17 17 17 17 17 17 16 16 16 16 16 16 15 15 15 15 15 15 15 14 14 14 14 14 14 14 14 14 14 14 13 13 13 13 13 13 13 13 12
17 17 17 16 17 16 16 17 16 16 16 16 16 16 15 15 15 15 15 14 14 14 14 14 14 14 14 14 13 14 14 14 13 13 13 13 13 13 13 13 12 12 12 12
16 16 16 16 16 16 16 16 16 15 15 15 15 15 15 15 15 15 14 14 14 14 14 14 14 13 13 13 13 13 13 13 13 13 13 13 13 13 13 12 12 12 12 12
16 15 15 15 15 15 15 15 15 15 15 15 15 14 14 14 14 14 14 14 14 13 13 13 13 13 13 13 13 13 13 13 13 13 13 13 12 12 12 12 12 12 12 11
15 15 15 15 15 15 15 15 15 15 15 14 14 14 14 14 14 14 13 13 13 13 13 13 13 13 13 13 13 13 13 13 13 13 12 12 12 12 12 12 12 11 11 11
15 15 14 14 14 14 14 14 14 14 14 14 14 14 13 13 13 13 13 13 13 13 13 13 13 13 12 12 12 12 12 12 12 12 12 12 12 12 12 11 11 11 11 11
14 14 14 14 14 14 14 14 14 14 14 14 13 13 13 13 13 13 13 13 13 12 13 12 12 12 12 12 12 12 12 12 12 12 12 12 11 11 11 11 11 11 11 11
14 14 13 13 13 13 13 13 13 13 13 13 13 13 13 13 12 12 12 12 12 12 12 12 12 12 12 12 12 12 11 11 11 11 11 11 11 11 11 11 11 11 11 10
13 13 13 13 13 13 13 13 13 13 13 13 13 13 13 12 12 12 12 12 12 12 12 11 11 11 11 11 11 11 11 11 11 11 11 11 11 11 11 10 10 10 10 10
13 13 13 13 13 13 13 13 13 13 13 12 12 12 12 12 12 12 11 11 11 11 11 11 11 11 11 11 11 11 11 11 11 11 10 10 10 10 10 10 10 10 10 9
13 13 13 12 13 12 12 12 12 12 12 12 12 12 12 12 11 11 11 11 11 11 11 11 11 11 11 11 11 11 10 10 10 10 10 10 10 10 10 10 10 9 9 9
12 12 12 12 12 12 12 12 12 12 12 12 12 12 12 11 11 11 11 11 11 11 11 11 11 10 10 10 10 10 10 10 10 10 10 10 10 10 9 9 9 9 9 9
12 12 12 12 12 12 12 12 12 12 12 12 11 11 11 11 11 11 11 11 11 11 10 10 10 10 10 10 10 10 10 10 10 9 9 9 9 9 9 9 9 9 9 8
12 12 12 12 12 12 12 12 12 12 11 11 11 11 11 11 11 11 11 11 10 10 10 10 10 10 10 10 10 10 10 9 9 9 9 9 9 9 9 9 9 9 8 8
Wind_Speed
5 6 3 4 5 4 3 7 7 7 8 9 9 9 8 7 8 8 7 6 6 6 4 4 4 4 4 3 3 5 5 5 5 4 4 3 3 3 3 3 4 3 3 3
4 5 3 4 5 3 2 2 4 5 5 6 6 7 7 8 9 9 8 8 7 6 5 5 5 4 3 3 3 4 4 4 4 4 3 3 3 3 2 3 3 3 3 3
4 6 5 5 4 1 0 0 5 5 6 5 6 8 9 9 9 9 8 7 7 6 7 6 5 5 4 3 3 4 4 3 3 2 3 3 3 2 2 2 2 2 3 3
1 2 4 7 4 3 4 2 2 4 5 9 9 7 6 7 9 8 7 7 7 7 6 5 4 3 2 3 3 3 3 2 2 2 2 2 2 2 3 2 2 2 3 3
3 3 5 5 4 1 4 3 2 5 6 6 6 7 3 3 6 8 7 6 5 6 6 5 5 4 3 3 3 2 2 2 3 3 3 3 3 3 3 2 2 2 2 2
4 4 6 5 6 2 6 1 3 5 7 6 6 4 3 3 4 5 6 5 4 5 5 5 5 5 5 3 3 3 3 3 3 3 3 4 4 3 2 2 3 2 2 2
5 5 6 5 6 3 3 5 3 2 5 5 3 5 5 5 5 6 6 6 6 5 5 5 5 5 4 3 3 4 3 3 3 3 3 3 3 3 2 2 1 1 2 2
3 3 6 4 2 3 5 3 2 2 3 3 3 4 5 6 6 6 5 5 5 6 4 4 4 5 3 3 4 2 2 2 2 2 3 3 3 2 2 2 2 1 1 2
5 6 5 1 3 3 3 2 1 2 3 5 6 6 6 5 6 5 5 4 4 6 5 3 3 4 4 3 2 1 1 1 1 1 1 2 3 3 2 2 2 1 1 2
1 1 1 1 2 2 2 2 2 3 5 6 6 7 7 6 6 5 4 4 4 5 5 3 2 3 3 3 2 2 2 2 1 1 1 1 2 2 2 2 3 2 2 2
1 2 1 2 1 1 2 3 2 3 5 6 7 7 7 7 6 4 3 3 3 4 4 3 2 2 2 2 2 2 2 2 2 2 2 2 2 2 3 4 5 5 4 3
5 6 4 4 3 2 3 3 4 4 3 4 5 5 6 6 5 5 4 3 3 3 3 2 1 2 2 2 2 3 2 2 2 2 2 2 2 1 2 3 4 6 6 5
5 4 3 2 0 1 3 3 4 4 4 4 3 3 5 5 4 4 4 5 4 4 3 2 2 2 2 2 2 3 3 3 2 2 2 2 2 3 2 3 3 4 5 5
2 2 2 1 0 1 3 4 4 4 4 4 4 3 4 4 4 4 4 4 4 4 3 2 1 2 3 2 2 3 3 3 3 3 3 3 4 4 4 3 2 3 4 5
1 3 2 1 3 2 3 4 5 4 4 3 3 3 4 5 5 4 3 3 3 2 2 1 1 3 3 2 2 3 3 3 3 3 3 3 3 3 3 3 3 2 2 2
2 4 4 5 4 2 3 4 4 3 3 3 2 2 3 4 5 4 3 3 3 3 2 1 2 3 2 1 2 2 3 5 4 3 2 2 2 3 3 3 3 3 3 3
4 3 3 3 2 1 1 2 2 3 3 3 3 3 3 3 3 2 2 2 3 3 3 3 3 3 2 2 2 2 2 2 3 2 2 3 3 3 3 3 3 3 3 3
4 3 2 3 2 1 2 2 2 2 3 4 3 4 4 3 3 3 3 2 1 1 2 3 3 3 2 2 2 2 2 2 2 2 2 2 2 2 3 3 3 4 3 2
5 5 4 4 2 2 2 1 1 1 2 3 3 3 3 3 3 3 2 2 2 3 4 3 2 2 2 3 2 2 2 2 2 2 2 2 2 2 2 3 3 3 3 3
5 5 4 4 3 3 2 1 1 1 0 2 3 2 2 3 3 2 2 2 4 4 4 3 2 2 3 3 3 2 2 2 2 1 1 2 2 2 2 2 3 3 2 2
3 3 4 3 2 2 1 1 0 1 1 1 3 3 3 3 2 2 2 2 4 3 2 3 2 2 3 3 3 2 2 2 2 2 1 1 2 1 2 2 2 2 2 2
2 2 2 2 2 2 2 1 1 0 0 0 0 1 2 2 2 1 2 3 3 2 1 1 2 3 3 3 2 1 1 1 1 1 1 1 1 1 1 2 2 2 2 2
1 1 1 1 1 1 2 2 1 0 1 1 1 2 2 2 2 2 2 3 2 2 2 2 3 3 3 1 1 1 1 1 1 1 1 1 1 1 1 2 2 2 2 2
1 1 1 2 1 1 2 2 1 0 1 1 2 2 2 1 0 1 2 2 2 2 2 3 3 3 2 0 0 1 1 1 1 1 1 1 1 1 1 1 2 2 2 2
1 1 1 2 2 2 2 2 1 1 1 1 1 1 1 2 2 2 1 2 3 2 1 2 3 2 1 1 1 1 1 1 2 1 1 1 1 1 1 1 2 2 2 2
1 2 2 2 2 2 1 1 1 1 1 1 1 1 0 0 1 1 1 1 2 2 1 2 1 1 1 1 1 1 1 1 1 1 1 1 1 1 2 2 3 2 3 3
1 1 1 1 2 1 1 0 1 1 1 1 1 2 1 1 1 0 0 1 1 1 0 1 1 0 1 1 1 1 1 1 1 0 0 0 0 1 1 2 2 2 3 3
Wind_Direction
235 246 260 274 284 280 213 188 186 209 189 202 188 171 162 150 143 139 141 145 147 148 153 148 141 136 142 153 167 173 171 174 189 208 210 202 207 218 220 225 235 240 245 252
321 311 331 309 306 303 253 216 181 168 206 209 169 141 139 148 149 149 152 154 153 149 145 145 142 138 144 150 163 157 166 172 185 195 193 195 205 207 215 227 230 229 237 245
282 309 2 304 277 237 302 223 164 184 211 162 145 150 160 159 151 155 156 157 160 162 158 163 165 153 157 171 161 155 160 165 170 181 194 207 202 190 208 227 228 235 240 243
209 12 245 246 258 164 114 23 115 131 147 152 153 158 158 154 151 150 153 156 164 160 153 154 151 142 164 154 133 143 154 169 183 184 200 210 197 205 217 214 223 237 248 252
143 204 264 290 320 64 116 359 8 118 122 129 124 91 76 145 151 158 159 160 163 161 155 149 146 147 140 123 124 144 178 206 208 198 201 210 211 217 218 213 230 241 254 246
160 188 229 256 299 302 107 325 302 124 128 130 117 129 215 190 141 137 133 149 160 150 139 145 156 147 133 143 151 184 209 225 218 204 205 216 216 218 219 211 230 245 265 258
186 211 245 265 297 27 130 219 261 122 134 136 149 190 185 155 132 135 138 148 144 132 139 156 154 138 140 166 209 214 205 217 217 213 215 213 206 209 205 208 227 252 263 280
164 195 246 282 41 133 206 213 156 124 127 121 130 125 132 134 130 125 122 124 128 129 137 140 140 139 155 212 234 220 199 212 229 227 227 210 194 199 189 183 193 238 249 293
183 212 243 281 158 188 164 146 174 150 151 144 138 145 146 137 132 130 126 122 123 128 125 122 139 148 172 226 232 194 177 221 246 234 227 188 177 185 181 170 180 212 226 262
112 234 253 44 79 85 105 129 152 150 147 140 143 149 147 141 133 129 125 126 120 120 126 138 156 160 185 208 192 164 191 224 240 215 228 223 207 197 188 193 190 192 204 227
152 225 25 350 6 119 82 83 91 133 142 144 140 150 148 144 140 139 132 125 131 137 141 162 177 187 209 202 172 173 197 213 221 225 216 215 228 224 213 223 208 198 204 201
225 234 204 240 239 161 118 119 119 105 96 116 129 143 145 146 148 145 136 126 124 130 142 167 182 223 242 225 176 172 195 215 217 226 217 202 203 257 277 244 228 208 208 207
217 228 208 248 303 120 122 117 118 116 127 121 110 125 141 150 152 143 141 144 147 153 163 183 206 247 258 239 189 185 208 224 221 225 222 209 205 206 245 287 258 227 222 226
210 126 63 22 354 69 105 109 108 106 110 123 124 112 124 130 133 140 159 173 166 159 173 195 223 273 271 243 209 208 217 221 214 220 226 222 220 218 210 213 239 264 254 240
76 120 141 95 62 65 97 100 100 106 104 102 109 114 134 144 151 157 172 168 151 146 179 196 248 283 288 268 227 224 226 226 222 222 224 224 226 217 209 205 210 230 258 273
94 81 88 78 62 53 90 99 118 141 144 138 133 144 161 161 157 153 161 164 161 187 223 237 255 270 279 262 239 244 243 240 230 221 227 229 221 211 211 213 215 218 228 241
103 79 76 73 62 40 105 126 146 156 152 152 158 155 142 131 127 150 197 203 198 206 218 220 245 267 259 239 233 247 248 258 251 233 229 224 217 213 212 210 213 221 231 225
126 131 122 128 119 69 57 85 108 140 158 170 154 141 145 153 175 206 217 206 199 248 258 248 251 264 266 259 246 247 246 248 241 230 229 224 222 217 210 209 210 208 219 214
82 87 75 71 90 95 84 78 108 146 168 155 145 161 183 193 197 206 203 187 225 259 273 267 241 231 261 271 266 240 242 250 249 245 233 229 222 211 205 208 211 203 200 195
66 73 75 57 56 69 56 24 36 68 151 171 160 174 218 238 225 208 188 218 238 238 249 249 224 228 249 265 270 239 232 239 234 235 237 223 217 217 213 205 197 194 195 195
87 77 73 67 41 36 29 8 358 277 266 207 189 205 219 227 214 197 180 236 266 262 256 232 230 244 244 249 254 245 236 240 241 235 237 234 226 213 200 198 195 189 186 188
81 87 81 68 44 6 341 349 349 309 277 275 204 190 179 198 210 202 216 225 251 264 252 235 245 251 256 255 243 237 248 253 244 225 207 202 191 208 215 202 197 199 189 177
61 69 59 30 338 309 334 349 355 36 205 197 189 203 205 216 197 179 263 273 257 261 258 252 250 254 261 247 220 213 244 248 222 198 187 187 184 196 203 198 198 191 183 184
28 8 333 322 342 359 325 307 327 297 233 229 218 214 201 186 251 230 212 242 240 247 257 267 260 266 276 284 249 228 232 221 220 221 208 213 205 198 192 191 192 180 168 154
240 253 293 322 325 287 259 259 281 305 297 296 290 258 194 180 197 232 219 215 224 233 278 281 278 276 270 279 269 258 248 234 228 217 211 211 206 205 208 206 194 178 162 148
261 257 260 251 246 257 257 244 255 268 256 260 298 301 286 218 196 167 163 200 228 240 260 271 270 250 250 271 280 266 255 254 249 233 220 217 225 222 217 198 178 163 149 144
304 310 343 348 337 329 313 248 255 264 230 194 232 266 250 201 154 158 234 225 229 223 248 299 324 324 302 295 305 309 291 282 266 212 215 248 247 207 182 162 152 140 137 136
Height
1485 1479 1477 1477 1475 1474 1480 1486 1496 1493 1491 1485 1481 1480 1482 1484 1487 1489 1491 1493 1495 1496 1498 1499 1501 1502 1504 1505 1506 1507 1507 1508 1508 1509 1509 1510 1510 1509 1509 1508 1508 1508 1507 1507
1484 1476 1475 1477 1472 1471 1473 1475 1479 1482 1485 1476 1477 1479 1482 1485 1486 1488 1490 1492 1494 1496 1497 1498 1500 1502 1503 1503 1504 1505 1505 1505 1506 1507 1507 1507 1507 1507 1507 1506 1506 1505 1504 1503
1496 1483 1480 1487 1475 1473 1474 1473 1475 1482 1480 1475 1478 1480 1481 1483 1484 1487 1488 1490 1492 1494 1495 1497 1498 1499 1501 1502 1502 1501 1502 1503 1503 1504 1504 1504 1504 1504 1504 1504 1503 1502 1502 1500
1498 1492 1500 1486 1468 1467 1471 1472 1470 1471 1472 1473 1474 1477 1479 1480 1482 1484 1487 1489 1491 1492 1493 1495 1497 1498 1499 1499 1499 1500 1500 1500 1501 1501 1501 1502 1502 1502 1501 1501 1500 1500 1499 1498
1502 1502 1493 1478 1469 1468 1472 1478 1471 1471 1472 1474 1475 1477 1481 1482 1482 1483 1485 1487 1489 1491 1492 1493 1495 1496 1496 1495 1497 1498 1498 1498 1498 1499 1499 1499 1499 1499 1498 1498 1497 1497 1496 1495
1497 1499 1499 1483 1468 1464 1469 1483 1473 1470 1472 1474 1474 1482 1483 1481 1481 1483 1484 1486 1488 1489 1490 1492 1493 1494 1494 1495 1495 1495 1495 1496 1496 1496 1496 1496 1496 1496 1496 1496 1495 1494 1493 1492
1493 1494 1487 1473 1466 1465 1483 1484 1473 1471 1470 1472 1473 1476 1477 1478 1480 1481 1483 1484 1486 1487 1489 1490 1491 1492 1492 1493 1493 1493 1493 1494 1494 1494 1493 1493 1494 1493 1493 1493 1492 1491 1490 1489
1492 1494 1490 1469 1467 1473 1476 1471 1471 1471 1471 1471 1472 1473 1475 1476 1477 1479 1481 1482 1484 1485 1487 1488 1489 1490 1490 1490 1491 1491 1491 1491 1491 1490 1490 1491 1490 1490 1490 1490 1489 1488 1487 1486
1483 1484 1473 1468 1468 1468 1469 1470 1470 1470 1471 1472 1471 1472 1474 1475 1476 1478 1479 1481 1482 1483 1484 1486 1487 1488 1487 1488 1488 1488 1488 1488 1488 1487 1487 1487 1487 1486 1486 1486 1486 1485 1484 1483
1477 1474 1471 1469 1468 1468 1468 1469 1469 1469 1470 1471 1471 1472 1473 1474 1476 1478 1479 1480 1481 1482 1483 1484 1485 1486 1486 1486 1486 1486 1486 1485 1485 1485 1484 1484 1484 1483 1483 1482 1482 1481 1480 1480
1476 1472 1471 1469 1468 1468 1468 1468 1468 1468 1469 1470 1470 1472 1472 1474 1475 1477 1478 1479 1480 1481 1481 1482 1483 1484 1484 1484 1484 1483 1483 1482 1482 1482 1481 1481 1480 1480 1479 1479 1479 1478 1477 1477
1474 1470 1469 1468 1467 1467 1467 1467 1468 1468 1469 1469 1470 1471 1472 1473 1474 1476 1477 1478 1479 1479 1480 1481 1481 1481 1482 1482 1481 1481 1480 1480 1479 1479 1478 1478 1477 1477 1477 1477 1476 1475 1475 1474
1467 1466 1466 1466 1466 1466 1465 1465 1466 1467 1468 1468 1470 1470 1471 1472 1473 1474 1475 1476 1477 1477 1478 1479 1479 1479 1479 1479 1479 1478 1478 1477 1476 1475 1475 1474 1474 1474 1473 1474 1473 1473 1472 1471
1465 1465 1465 1465 1465 1465 1464 1464 1465 1466 1467 1468 1469 1469 1470 1471 1472 1473 1474 1475 1475 1476 1477 1477 1477 1477 1477 1477 1476 1475 1475 1474 1473 1472 1472 1471 1471 1470 1470 1470 1469 1469 1469 1468
1464 1463 1464 1463 1463 1464 1464 1464 1464 1465 1466 1467 1468 1468 1469 1470 1470 1471 1473 1474 1474 1474 1474 1474 1474 1474 1474 1473 1473 1472 1472 1471 1470 1469 1468 1468 1468 1467 1467 1466 1466 1465 1465 1465
1462 1463 1463 1463 1463 1463 1463 1463 1463 1464 1465 1466 1467 1467 1468 1469 1469 1470 1471 1472 1472 1471 1472 1472 1472 1472 1471 1471 1470 1469 1469 1468 1467 1466 1466 1465 1464 1464 1463 1463 1462 1462 1461 1461
1461 1462 1463 1463 1463 1463 1463 1463 1463 1464 1464 1464 1465 1466 1466 1467 1467 1468 1469 1470 1470 1470 1470 1470 1469 1469 1468 1468 1467 1467 1466 1465 1464 1463 1462 1462 1461 1460 1460 1459 1459 1458 1458 1457
1461 1462 1463 1463 1463 1463 1462 1462 1463 1463 1463 1463 1463 1463 1464 1465 1465 1465 1466 1467 1467 1467 1467 1467 1466 1465 1465 1465 1464 1463 1462 1462 1461 1460 1459 1458 1458 1457 1456 1456 1455 1455 1454 1454
1462 1462 1463 1463 1463 1463 1462 1462 1462 1462 1462 1462 1462 1461 1462 1463 1463 1463 1464 1464 1464 1463 1463 1462 1462 1462 1462 1462 1461 1460 1459 1459 1458 1457 1456 1456 1455 1454 1453 1453 1452 1451 1451 1451
1462 1462 1462 1462 1462 1462 1462 1461 1461 1461 1461 1461 1460 1460 1461 1461 1461 1461 1461 1461 1461 1460 1460 1460 1459 1459 1459 1458 1458 1457 1457 1456 1455 1454 1454 1453 1452 1451 1450 1450 1449 1449 1449 1448
1462 1462 1462 1462 1462 1462 1461 1460 1460 1459 1459 1458 1458 1458 1458 1458 1458 1459 1458 1458 1458 1458 1457 1457 1457 1456 1456 1455 1455 1454 1454 1453 1452 1452 1451 1450 1449 1449 1448 1447 1447 1446 1446 1446
1462 1462 1462 1462 1461 1461 1460 1460 1459 1459 1458 1457 1457 1457 1456 1456 1456 1456 1456 1456 1456 1455 1454 1454 1454 1454 1453 1453 1452 1451 1451 1450 1450 1449 1448 1447 1447 1446 1445 1445 1444 1444 1443 1443
1462 1462 1462 1461 1461 1461 1460 1460 1459 1458 1457 1456 1456 1455 1454 1454 1454 1453 1453 1454 1453 1453 1452 1452 1452 1451 1451 1450 1450 1449 1448 1448 1447 1446 1446 1445 1444 1444 1443 1442 1442 1441 1441 1441
1462 1462 1462 1461 1461 1460 1460 1459 1458 1457 1456 1456 1455 1454 1453 1452 1452 1452 1452 1452 1451 1451 1450 1450 1450 1449 1448 1448 1447 1447 1447 1446 1445 1445 1444 1443 1442 1442 1441 1440 1440 1440 1439 1439
1462 1462 1461 1461 1460 1459 1459 1458 1457 1457 1456 1455 1454 1453 1452 1451 1451 1451 1450 1450 1449 1449 1448 1448 1448 1447 1446 1446 1445 1445 1445 1444 1444 1443 1442 1441 1441 1440 1440 1439 1439 1438 1438 1437
1461 1461 1461 1460 1459 1459 1458 1457 1456 1455 1454 1454 1453 1452 1451 1451 1450 1450 1449 1449 1448 1447 1447 1446 1445 1444 1444 1444 1444 1443 1443 1442 1442 1441 1441 1440 1439 1439 1438 1437 1437 1437 1437 1437
1460 1460 1459 1459 1458 1458 1457 1456 1455 1454 1454 1453 1452 1451 1450 1449 1449 1448 1448 1447 1446 1445 1445 1444 1443 1443 1443 1443 1442 1442 1441 1441 1440 1440 1439 1439 1438 1437 1437 1436 1436 1435 1435 1435